Location: Newark
(27.9675°N, 86.8869°E)
Time: 09:01:20
(UTC+00:00)

Vanguard 3 - Pass Details

Date: 26 October 2019
Orbit: 508 x 3263 km, 33.3° (Epoch: 14 November)

Event Time Altitude Azimuth Distance (km) Brightness Sun altitude
Rises 22:49:59 0° 265° (W) 2,970 - -20.4°
Reaches altitude 10° 22:52:54 10° 242° (WSW) 2,324 - -19.8°
Exits shadow 22:54:49 15° 220° (SW) 2,192 9.0 -19.3°
Maximum altitude 22:56:08 16° 204° (SSW) 2,267 9.2 -19.0°
Drops below altitude 10° 23:00:19 10° 170° (S) 3,148 10.3 -18.1°
Sets 23:05:24 0° 151° (SSE) 4,725 11.6 -17.0°
